Location: Ambach
(48.6505°N, 11.1049°E)
Time: 00:31:28
(UTC+00:00)

Daily predictions for brighter satellites

Satellite Brightness Start Highest point End
(mag) Time Altitude Azimuth Time Altitude Azimuth Time Altitude Azimuth
SL-16 R/B 4.3 00:24:54 27° NNE 00:24:54 27° NNE 00:28:25 10° N
Cosmos 2082 Rocket 4.3 00:50:59 22° N 00:50:59 22° N 00:53:03 10° NNE
USA 215 3.9 01:10:01 10° E 01:16:11 51° NNE 01:16:11 51° NNE
ATLAS 2AS CENTAUR R/B 3.2 01:22:06 60° NNE 01:22:06 60° NNE 01:27:52 10° NE
Resurs 1-4 Rocket 3.7 01:41:12 10° N 01:43:36 27° N 01:43:36 27° N
NOSS 3-1 (A) 3.9 01:55:41 53° NW 01:57:53 90° WSW 02:06:43 10° SE
SL-16 R/B 4.0 02:10:01 24° NNW 02:10:01 24° NNW 02:12:26 10° NNW
USA 281 3.1 02:00:39 10° NNE 02:07:16 89° WNW 02:07:16 89° WNW
ADEOS II 3.2 02:03:26 10° N 02:06:36 36° N 02:06:36 36° N
Cosmos 2266 Rocket 4.0 02:09:14 74° NNW 02:09:14 74° NNW 02:15:07 10° N
Cosmos 2315 Rocket 3.9 02:06:35 10° N 02:13:00 87° E 02:13:10 85° SE
CZ-2D R/B 3.6 02:08:42 10° N 02:11:32 27° NNW 02:11:32 27° NNW
CZ-2C R/B 4.1 02:19:07 25° NNW 02:19:07 25° NNW 02:21:21 10° NNW
IDEFIX/ARIANE 42P 4.1 02:17:17 10° N 02:19:53 25° NNW 02:19:53 25° NNW
Cosmos 2237 Rocket 3.7 02:20:40 10° NNW 02:25:54 36° NE 02:31:04 10° ESE
Cosmos 1125 Rocket 3.8 02:25:57 60° ESE 02:26:09 61° ESE 02:31:17 10° NNE
Lacrosse 5 rocket 2.6 02:31:30 36° NE 02:31:30 36° NE 02:33:57 10° NE
Cosmos 1536 4.4 02:26:53 10° N 02:30:25 32° ENE 02:32:05 23° ESE
Cosmos 2082 Rocket 4.3 02:32:50 14° NW 02:33:06 14° NNW 02:35:57 10° N
ATLAS CENTAUR R/B 3.9 02:34:10 42° WNW 02:36:41 58° NNW 02:49:38 10° ENE
Cosmos 1500 Rocket 4.2 02:35:55 10° N 02:39:12 49° N 02:39:12 49° N
FENGYUN 3A 4.0 02:40:17 10° N 02:44:55 49° NW 02:44:55 49° NW
NOSS 0 Rocket 4.1 02:41:23 10° NNW 02:47:40 76° ENE 02:53:55 10° SE
ATLAS 5 CENTAUR R/B 4.1 02:47:00 10° NNW 02:48:53 12° N 02:50:53 10° NNE
COSMOS 2428 2.5 02:43:18 10° NNW 02:49:00 77° WSW 02:54:42 10° SSE
Timation 1 Rocket 4.5 02:49:01 52° WNW 02:49:24 53° NW 02:55:16 10° NNE
PAYLOAD A 4.3 02:45:00 10° NNE 02:49:52 62° ESE 02:52:14 31° S
CZ-2C R/B 2.3 02:50:48 10° NNE 02:55:35 76° ESE 02:56:50 48° S
ALOS 2.8 02:52:40 10° N 02:56:20 43° NW 02:56:20 43° NW
Cosmos 1151 Rocket 4.2 02:54:46 14° SSE 02:58:16 42° E 03:02:25 10° NNE
USA 215 3.1 02:52:31 10° SE 02:59:06 83° SW 03:03:31 23° WNW
Cosmos 2227 Rocket 4.4 03:00:18 10° SSE 03:04:43 24° ESE 03:09:07 10° NE
Cosmos 2298 Rocket 3.9 03:05:10 42° SSW 03:07:01 90° SW 03:12:21 10° NNE
Cosmos 44 Rocket 4.4 03:05:11 20° S 03:08:11 42° ESE 03:13:03 10° NE
Meteor 1-27 Rocket 4.2 03:06:11 10° S 03:11:42 61° E 03:17:23 10° NNE
ATLAS 2AS CENTAUR R/B 3.8 03:09:31 25° WNW 03:12:31 33° NNW 03:18:50 10° NE
DMSP B5D2-2 4.4 03:10:16 10° SSE 03:15:28 66° ENE 03:20:43 10° N
CZ-2C R/B 3.5 03:13:04 10° N 03:18:31 46° WNW 03:19:54 39° WSW
Cosmos 2150 Rocket 3.9 03:16:29 37° SW 03:18:38 76° WNW 03:23:55 10° NNE
Thor Agena Rocket 4.2 03:16:14 10° N 03:20:58 35° WNW 03:21:27 34° WNW
Cosmos 1269 Rocket 4.4 03:17:33 10° NNW 03:22:49 66° ENE 03:28:03 10° SSE
Helios 1A 3.7 03:20:24 10° SSE 03:24:23 54° ENE 03:28:23 10° N
Resurs 1-4 Rocket 4.2 03:23:35 10° NNW 03:24:40 11° NW 03:24:40 11° NW
Cosmos 1743 Rocket 3.7 03:23:11 10° NNW 03:27:20 45° W 03:27:39 44° WSW
Meteor 1-11 Rocket 3.8 03:22:41 10° NNW 03:28:33 65° W 03:34:25 10° S
Cosmos 614 Rocket 4.0 03:23:37 10° NNW 03:28:47 85° ENE 03:33:58 10° SSE
Cosmos 1805 Rocket 3.7 03:25:35 10° NNW 03:29:44 45° W 03:30:45 38° SW
Cosmos 1980 3.6 03:26:26 10° NNW 03:32:08 82° WSW 03:37:47 10° SSE
USA 229 DEB 4.0 03:25:20 10° NW 03:32:34 56° WSW 03:40:21 10° SSE
USA 229 4.0 03:25:25 10° NW 03:32:39 57° WSW 03:40:26 10° SSE
Cosmos 1867 4.3 03:33:23 31° WSW 03:33:23 31° WSW 03:37:53 10° S
Cosmos 1633 Rocket 3.5 03:31:37 10° N 03:36:00 65° ENE 03:40:23 10° SSE
Cosmos 1745 Rocket 4.1 03:30:07 10° S 03:36:26 80° E 03:42:50 10° N
Sich 1 3.4 03:34:28 10° NNW 03:38:32 40° W 03:41:10 19° SSW
ATLAS CENTAUR R/B 2.9 03:35:44 10° NNW 03:38:55 29° NE 03:42:05 10° ESE
GP-B 3.4 03:38:17 25° SW 03:40:24 44° W 03:44:40 10° NNW
Cosmos 1484 Rocket 2.6 03:37:03 10° NNE 03:40:42 81° ESE 03:44:20 10° S
Meteor 2-9 Rocket 4.2 03:35:09 10° NNW 03:41:02 80° W 03:46:46 10° S
NOAA 11 4.1 03:35:42 10° NNE 03:41:12 76° WNW 03:46:39 10° SSW
H-2A R/B 3.8 03:37:07 10° NNE 03:42:09 36° E 03:47:05 10° SSE
YAOGAN 6 3.0 03:42:11 10° N 03:45:20 36° WNW 03:45:34 36° W
BREEZE-M DEB (TANK) 4.4 03:38:08 16° SW 03:46:45 58° SSE 03:50:31 10° E
ADEOS II 4.1 03:45:30 10° NNW 03:47:14 12° NW 03:47:29 12° NW
BlueWalker 3 3.4 03:48:24 21° SSW 03:48:24 21° SSW 03:50:53 10° S
Meteor 1-10 Rocket 4.4 03:44:45 18° SW 03:48:34 46° WNW 03:53:55 10° N
USA 281 4.4 03:45:53 10° N 03:51:04 25° NW 03:54:08 18° W
IRS-1D 4.3 03:46:56 10° N 03:51:39 33° WNW 03:54:06 22° WSW
Envisat 3.4 03:49:16 10° N 03:54:03 43° WNW 03:57:47 16° SW
Cosmos 2297 Rocket 2.1 03:55:46 10° SSW 04:01:25 81° WNW 04:07:07 10° NNE
Cosmos 1939 Rocket 3.8 03:59:46 10° NNE 04:03:32 49° E 04:07:19 10° S
Cosmos 1536 3.9 04:03:24 10° NW 04:06:23 21° W 04:07:16 20° WSW
Lacrosse 5 rocket 2.6 04:06:40 15° WNW 04:09:07 27° NNW 04:12:27 10° NE
Cosmos 2237 Rocket 2.4 04:04:41 10° NW 04:10:06 46° WSW 04:15:28 10° S
Cosmos 2219 4.2 04:06:21 10° S 04:11:48 50° ESE 04:17:14 10° NE
Cosmos 1470 Rocket 3.6 04:08:20 10° N 04:12:49 85° W 04:17:18 10° S
Meteor 2-10 3.9 04:10:03 10° NNW 04:15:19 71° W 04:20:24 10° S
Cosmos 2181 Rocket 4.3 04:09:45 10° N 04:15:57 70° E 04:22:02 10° SSE
SL-16 R/B 2.5 04:14:11 10° NNW 04:19:55 76° ENE 04:25:36 10° SSE
Okean 1 4.0 04:16:29 10° SW 04:19:56 32° WNW 04:23:26 10° N
SL-08 R/B 3.5 04:17:39 10° SSE 04:22:27 84° ENE 04:27:23 10° NNW
Cosmos 1726 2.1 04:19:23 10° NNW 04:22:41 46° W 04:25:58 10° SSW
H-2A R/B 2.6 04:19:29 10° N 04:22:54 52° WNW 04:26:17 10° SSW
ERS-2 1.7 04:21:11 10° NNE 04:24:21 86° ESE 04:27:29 10° SSW
Cosmos 1975 2.7 04:21:16 10° NNW 04:25:12 67° W 04:29:08 10° S
IRS-1C 4.1 04:24:54 10° N 04:30:12 64° WNW 04:35:27 10° SSW
Cosmos 2344 3.7 04:23:47 10° SSW 04:31:19 77° SE 04:38:49 10° NE
COSMOS 2428 4.3 04:29:52 10° WNW 04:32:16 13° W 04:34:40 10° WSW
CZ-2C R/B 3.9 04:30:12 10° NNW 04:33:09 17° WNW 04:36:03 10° W
SJ-12 4.4 04:30:18 10° NNE 04:34:19 65° ESE 04:38:17 10° S
ATLAS 5 CENTAUR R/B 3.9 04:30:55 10° NNW 04:34:41 23° NNE 04:39:02 10° E
Cosmos 1151 Rocket 4.3 04:32:34 10° WSW 04:35:59 22° WNW 04:39:25 10° NNW
Cosmos 1766 4.3 04:34:25 10° N 04:38:04 48° ENE 04:41:43 10° SSE
Cosmos 407 Rocket 3.9 04:36:24 10° NNW 04:41:47 74° ENE 04:47:06 10° SSE
Cosmos 1733 3.7 04:38:53 10° NNW 04:42:18 35° W 04:45:41 10° SSW
USA 215 4.2 04:37:15 10° S 04:42:44 28° SW 04:48:14 10° WNW
Cosmos 1515 Rocket 3.5 04:39:29 10° SSW 04:43:52 67° WNW 04:48:14 10° N
ARIANE 5 R/B 2.7 04:40:41 10° N 04:45:32 50° WNW 04:50:20 10° SW
Cosmos 1328 Rocket 4.3 04:43:00 10° SW 04:46:58 32° WNW 04:50:56 10° N
BREEZE-M DEB (TANK) 4.4 04:42:34 10° W 04:47:08 88° N 05:11:43 10° E
Helios 1B rocket 3.1 04:43:13 10° NNE 04:47:10 59° E 04:51:06 10° S
COSMO-SKYMED 1 2.7 04:43:43 10° S 04:47:58 54° W 04:52:16 10° NNW
Cosmos 2227 Rocket 2.3 04:42:39 10° SW 04:48:17 63° WNW 04:53:57 10° NNE
Cosmos 44 Rocket 4.0 04:44:58 10° WSW 04:49:46 40° NW 04:54:41 10° NNE
Cosmos 1933 Rocket 3.5 04:46:47 10° NNW 04:51:05 63° W 04:55:21 10° S
Cosmos 2263 Rocket 3.2 04:45:47 10° S 04:51:12 51° ESE 04:56:37 10° NE
